DateTime,F1_A11,F1_S11,BsB_S11,BsG_S11,BsR_S11,BbsB_S11,BbsG_S11,BbsR_S11,BaB_A11,BaG_A11,BaR_A11,T_S11,U_S11,P_S11,T1_A11
2016-08-26T00:00:00Z,0000380,20000600,,,,,,,,,,27.7,04.8,0675.5,34.9
2016-08-26T00:01:00Z,0000380,20000600,,,,,,,,,,27.7,04.8,0675.5,34.9
2016-08-26T00:02:00Z,0000380,20000600,,,,,,,,,,27.7,04.8,0675.5,34.9
2016-08-26T00:03:00Z,0000380,60000600,,,,,,,,,,27.7,04.8,0675.5,34.9
2016-08-26T00:04:00Z,0000380,40000600,0001.27,0000.48,0000.71,0000.63,-000.11,0000.30,0000.14,0000.04,-000.01,27.8,04.8,0676.5,34.9
2016-08-26T00:05:00Z,0000380,00000600,0000.51,0000.03,0000.06,0000.36,-000.08,0000.05,-000.05,0000.08,0000.11,27.8,04.8,0676.6,34.9
2016-08-26T00:06:00Z,0000380,00000600,0001.43,0000.74,0000.97,0000.14,0000.34,0000.28,-000.02,-000.10,0000.04,27.8,04.8,0676.6,34.9
2016-08-26T00:07:00Z,0000380,00000600,-000.07,0001.18,0000.43,0000.41,-000.55,0000.14,-000.04,0000.04,-000.15,27.8,04.8,0676.6,34.9
2016-08-26T00:08:00Z,0000380,00000600,0000.08,0001.09,0000.42,0000.47,0000.05,0000.02,0000.08,0000.07,0000.35,27.8,04.7,0676.6,34.9
2016-08-26T00:09:00Z,0000380,00000600,0000.08,0000.32,0000.52,-000.14,0000.44,0000.28,0000.04,0000.01,0000.02,27.8,04.8,0676.6,34.9
2016-08-26T00:10:00Z,0000380,00000600,0001.08,0000.37,0000.23,0000.42,0000.20,-000.09,0000.19,0000.05,-000.08,27.9,04.8,0676.6,34.9
2016-08-26T00:11:00Z,0000380,00000600,0000.35,0000.89,0000.72,0000.89,0000.27,-000.02,-000.02,-000.01,0000.13,27.9,04.8,0676.6,34.9
2016-08-26T00:12:00Z,0000380,00000600,-000.64,0000.81,0000.63,0000.44,-000.16,-000.02,-000.10,-000.02,-000.19,27.9,04.7,0676.6,34.9
2016-08-26T00:13:00Z,0000380,00000600,-000.14,0000.38,0000.63,0000.03,0000.19,0000.22,-000.03,0000.10,0000.18,27.9,04.7,0676.6,34.9
2016-08-26T00:14:00Z,0000380,00000600,0001.73,0001.13,0000.69,-000.06,0000.02,0000.06,-000.00,0000.03,-000.11,27.9,04.8,0676.6,34.9
2016-08-26T00:15:00Z,0000380,00000600,0000.98,0001.25,0000.07,-000.38,0000.45,0000.11,0000.16,0000.02,0000.04,27.9,04.8,0676.6,34.9
2016-08-26T00:16:00Z,0000380,00000600,0000.31,0000.53,0000.49,0000.19,-000.20,0000.02,0000.05,-000.05,0000.23,27.9,04.8,0676.6,34.9
2016-08-26T00:17:00Z,0000380,00000600,0000.90,0000.55,0000.38,0000.27,0000.33,0000.19,0000.08,0000.07,-000.26,27.9,04.8,0676.6,34.9
2016-08-26T00:18:00Z,0000380,00000600,0001.36,0001.07,0000.20,0000.44,0000.22,0000.41,-000.06,0000.11,0000.05,27.9,04.8,0676.7,34.9
2016-08-26T00:19:00Z,0000380,00000600,0000.35,0001.34,0000.85,0000.78,-000.08,-000.09,0000.12,-000.01,0000.12,27.9,04.8,0676.6,34.9
2016-08-26T00:20:00Z,0000380,00000600,0001.26,0000.65,0000.74,0000.39,0000.19,-000.14,-000.02,-000.04,-000.09,27.9,04.9,0676.6,34.9
2016-08-26T00:21:00Z,0000380,00000600,0000.76,0000.52,0000.02,0000.74,0000.08,0000.31,-000.14,0000.24,0000.08,27.9,04.8,0676.7,34.9
2016-08-26T00:22:00Z,0000380,00000600,-000.31,0001.62,0000.11,-000.42,-000.27,-000.16,0000.06,-000.13,0000.22,27.9,04.9,0676.7,34.9
2016-08-26T00:23:00Z,0000380,00000600,0000.39,0000.48,-000.15,0000.49,0000.08,-000.41,0000.20,-000.15,-000.17,27.9,04.8,0676.7,34.9
2016-08-26T00:24:00Z,0000380,00000600,-000.17,0000.81,-000.18,0000.16,-000.17,0000.19,-000.01,0000.26,0000.27,27.9,04.8,0676.6,34.9
2016-08-26T00:25:00Z,0000380,00000600,-000.37,0000.61,0000.39,0000.28,-000.08,-000.42,0000.04,-000.06,-000.34,27.9,04.8,0676.6,34.9
2016-08-26T00:26:00Z,0000380,00000600,0000.26,0001.25,0000.11,0000.75,0000.50,0000.06,-000.07,-000.01,0000.11,27.9,04.8,0676.7,34.9
2016-08-26T00:27:00Z,0000380,00000600,-000.11,-000.04,0000.15,0000.09,0000.02,-000.14,0000.09,0000.03,0000.13,28.0,04.7,0676.6,34.9
2016-08-26T00:28:00Z,0000380,00000600,0000.54,0000.18,0000.90,0000.33,0000.23,0000.49,0000.12,0000.09,-000.09,28.0,04.7,0676.6,34.9
2016-08-26T00:29:00Z,0000380,00000600,0001.15,0000.82,0000.53,-000.44,0000.17,-000.02,0000.10,0000.02,0000.18,28.0,04.8,0676.7,34.9
2016-08-26T00:30:00Z,0000380,00000600,-000.09,0000.98,0000.24,0000.22,0000.11,-000.08,-000.00,0000.03,0000.08,28.0,04.8,0676.7,34.9
2016-08-26T00:31:00Z,0000380,00000600,0001.47,0000.42,0000.46,0000.27,0000.09,0000.20,-000.02,-000.12,-000.06,28.0,04.7,0676.6,34.9
2016-08-26T00:32:00Z,0000380,00000600,0001.02,0000.66,-000.05,0000.80,-000.17,-000.02,0000.11,0000.10,0000.07,28.0,04.8,0676.7,34.9
2016-08-26T00:33:00Z,0000380,00000600,0000.52,0000.39,0000.22,0001.10,0000.66,0000.16,-000.10,0000.04,-000.04,28.0,04.8,0676.7,34.9
2016-08-26T00:34:00Z,0000380,00000600,0000.27,0001.14,-000.02,-000.05,0000.09,-000.02,0000.16,0000.15,0000.26,28.0,04.8,0676.6,34.9
2016-08-26T00:35:00Z,0000380,00000600,0000.37,0000.57,0000.11,0000.47,0000.13,-000.14,0000.05,-000.23,-000.43,28.0,04.7,0676.6,34.9
2016-08-26T00:36:00Z,0000380,00000600,0000.27,0000.58,0000.35,-000.63,-000.05,0000.03,0000.02,0000.13,0000.13,28.0,04.8,0676.6,34.9
2016-08-26T00:37:00Z,0000380,00000600,0000.36,0000.50,0000.40,0000.09,0000.48,-000.06,-000.10,0000.21,0000.43,28.0,04.8,0676.6,34.9
2016-08-26T00:38:00Z,0000380,00000600,0000.60,0000.73,0000.91,0000.25,0000.27,0000.46,0000.22,-000.08,-000.39,28.0,04.8,0676.6,34.9
2016-08-26T00:39:00Z,0000380,00000600,0000.79,0001.14,0000.60,0000.49,0000.13,0000.58,0000.02,0000.04,-000.08,28.0,04.7,0676.6,34.9
2016-08-26T00:40:00Z,0000380,00000600,-000.29,0000.62,0000.03,-000.57,0000.56,0000.08,0000.10,-000.04,0000.27,28.0,04.8,0676.6,34.9
2016-08-26T00:41:00Z,0000380,00000600,0000.29,0000.59,0000.32,0000.31,0000.38,0000.27,0000.06,-000.02,0000.03,28.0,04.7,0676.6,34.9
2016-08-26T00:42:00Z,0000380,00000600,0001.01,-000.08,0000.66,0000.39,0000.05,0000.53,-000.03,0000.16,-000.00,28.0,04.8,0676.6,34.9
2016-08-26T00:43:00Z,0000380,00000600,0001.01,0001.33,0000.90,0000.19,0000.05,0000.31,-000.04,0000.03,-000.08,28.0,04.8,0676.6,34.9
2016-08-26T00:44:00Z,0000380,00000600,0000.68,0000.26,0000.25,0000.14,-000.03,0000.31,0000.14,0000.07,0000.12,28.0,04.8,0676.6,34.9
2016-08-26T00:45:00Z,0000380,00000600,0000.27,0001.24,0000.36,0000.09,0000.58,0000.05,-000.09,0000.01,-000.12,28.0,04.8,0676.6,34.9
2016-08-26T00:46:00Z,0000380,00000600,0000.83,0000.73,0000.60,0000.46,-000.13,-000.08,0000.01,0000.12,0000.11,28.0,04.8,0676.6,34.9
2016-08-26T00:47:00Z,0000380,00000600,0000.30,0001.34,0000.22,-000.17,0000.00,0000.25,0000.16,-000.19,0000.15,28.0,04.7,0676.6,34.9
2016-08-26T00:48:00Z,0000380,00000600,0000.25,0001.08,0000.49,0000.11,0000.02,-000.44,-000.05,0000.20,0000.00,28.0,04.7,0676.6,34.9
2016-08-26T00:49:00Z,0000380,00000600,0000.86,0000.06,0000.38,0000.64,0000.02,-000.17,0000.01,0000.05,-000.14,28.0,04.7,0676.6,34.9
2016-08-26T00:50:00Z,0000380,00000600,0000.25,0000.78,0000.38,-000.02,-000.06,0000.35,0000.24,0000.08,0000.23,28.0,04.7,0676.6,34.9
2016-08-26T00:51:00Z,0000380,00000600,0001.93,0000.62,0000.19,0000.00,0000.13,0000.11,0000.12,-000.06,0000.05,28.0,04.7,0676.6,34.9
2016-08-26T00:52:00Z,0000380,00000600,0000.37,0000.74,0000.50,-000.02,0000.28,-000.17,-000.16,0000.10,-000.08,28.0,04.7,0676.6,34.9
2016-08-26T00:53:00Z,0000380,00000600,0001.02,0000.77,0000.34,0000.05,0000.16,0000.16,0000.16,-000.07,0000.01,28.0,04.7,0676.5,34.9
2016-08-26T00:54:00Z,0000380,00000600,0001.59,0001.14,0000.23,0000.31,0000.17,0000.17,0000.04,0000.07,-000.03,28.0,04.7,0676.5,34.9
2016-08-26T00:55:00Z,0000380,00000600,0000.49,0001.22,0000.83,-000.08,-000.13,0000.36,-000.01,0000.01,0000.38,28.1,04.7,0676.5,34.9
2016-08-26T00:56:00Z,0000380,00000600,-000.52,0000.96,0000.64,0000.22,-000.48,0000.17,0000.08,0000.04,-000.08,28.1,04.7,0676.5,34.9
2016-08-26T00:57:00Z,0000380,40000600,,,,,,,,,,,,0676.4,34.9
2016-08-26T00:58:00Z,0000380,60000600,,,,,,,,,,28.0,04.6,0675.5,34.9
2016-08-26T00:59:00Z,0000380,20000600,,,,,,,,,,28.0,04.6,0675.5,34.9
2016-08-26T01:00:00Z,0000380,20000600,,,,,,,,,,28.0,04.6,0675.5,34.9
2016-08-26T01:01:00Z,0000380,20000600,,,,,,,,,,28.0,04.6,0675.5,34.9
2016-08-26T01:02:00Z,0000380,20000600,,,,,,,,,,28.0,04.6,0675.5,34.9
2016-08-26T01:03:00Z,0000380,60000600,,,,,,,,,,28.0,04.6,0675.5,34.9
2016-08-26T01:04:00Z,0000380,40000600,0000.54,0000.67,0000.14,0000.72,0000.06,0000.28,0000.10,-000.15,-000.11,28.1,04.7,0676.4,34.9
2016-08-26T01:05:00Z,0000380,00000600,0000.75,-000.41,0000.97,0000.39,0000.14,0000.19,0000.05,0000.22,0000.05,28.2,04.6,0676.5,34.9
2016-08-26T01:06:00Z,0000380,00000600,0000.47,0000.68,0000.12,0000.52,-000.09,-000.31,0000.00,-000.13,-000.12,28.2,04.7,0676.5,34.9
2016-08-26T01:07:00Z,0000380,00000600,-000.28,0000.75,0000.35,0000.09,0000.50,-000.30,0000.16,0000.19,0000.28,28.2,04.7,0676.5,34.9
2016-08-26T01:08:00Z,0000380,00000600,0000.90,0000.57,0000.26,-000.02,-000.16,-000.42,-000.05,0000.10,0000.02,28.2,04.7,0676.5,34.9
2016-08-26T01:09:00Z,0000380,00000600,0000.54,0000.66,0000.31,-000.09,0000.03,0000.05,0000.02,-000.11,-000.04,28.2,04.7,0676.5,34.9
2016-08-26T01:10:00Z,0000380,00000600,0001.28,0000.68,0000.32,0000.72,0000.36,0000.13,0000.06,-000.02,-000.16,28.2,04.7,0676.6,34.9
2016-08-26T01:11:00Z,0000380,00000600,0000.83,0000.46,0000.29,0000.47,0000.19,0000.11,-000.01,0000.11,0000.22,28.2,04.6,0676.6,34.9
2016-08-26T01:12:00Z,0000380,00000600,0000.87,-000.02,0000.87,0000.91,-000.23,0000.33,0000.10,0000.08,-000.06,28.2,04.6,0676.6,34.9
2016-08-26T01:13:00Z,0000380,00000600,0000.21,0000.47,0000.05,0000.46,-000.06,-000.20,0000.08,0000.06,0000.18,28.2,04.7,0676.6,34.9
2016-08-26T01:14:00Z,0000380,00000600,-000.25,0000.36,0000.36,0000.38,0000.45,0000.35,-000.03,0000.02,0000.13,28.2,04.6,0676.6,34.9
2016-08-26T01:15:00Z,0000380,00000600,-000.21,0000.34,0000.39,0000.94,-000.03,-000.03,0000.00,-000.10,-000.37,28.2,04.5,0676.6,34.9
2016-08-26T01:16:00Z,0000380,00000600,0000.42,-000.02,0000.23,0000.77,-000.52,-000.03,0000.04,0000.08,0000.14,28.2,04.5,0676.6,34.9
2016-08-26T01:17:00Z,0000380,00000600,0000.31,-000.08,-000.49,-000.22,0000.03,-000.11,0000.05,0000.16,0000.22,28.3,04.5,0676.6,34.9
2016-08-26T01:18:00Z,0000380,00000600,-000.14,0001.27,0000.09,0000.03,0000.28,-000.03,0000.04,0000.03,-000.20,28.3,04.5,0676.7,34.9
2016-08-26T01:19:00Z,0000380,00000600,0000.63,-000.09,0000.30,0000.39,-000.41,-000.11,-000.05,-000.23,0000.10,28.2,04.6,0676.6,34.9
2016-08-26T01:20:00Z,0000380,00000600,0000.37,0000.85,0000.86,0000.33,-000.06,-000.09,0000.05,0000.18,-000.16,28.2,04.6,0676.7,34.9
2016-08-26T01:21:00Z,0000380,00000600,0000.14,0000.14,0000.62,0000.47,0000.06,-000.02,0000.05,0000.05,0000.06,28.2,04.7,0676.6,34.9
2016-08-26T01:22:00Z,0000380,00000600,0000.28,0000.88,0000.40,0000.77,0000.08,-000.17,0000.11,0000.05,0000.06,28.2,04.7,0676.7,34.9
2016-08-26T01:23:00Z,0000380,00000600,0000.59,0000.58,0000.40,-000.28,-000.22,0000.36,-000.02,0000.14,0000.39,28.2,04.7,0676.7,34.9
2016-08-26T01:24:00Z,0000380,00000600,0000.64,0000.72,0000.89,0000.19,0000.11,0000.27,0000.04,-000.21,-000.28,28.2,04.7,0676.6,34.9
2016-08-26T01:25:00Z,0000380,00000600,-001.02,0000.34,-000.09,0000.71,0000.47,-000.33,0000.09,0000.15,0000.22,28.2,04.7,0676.7,34.9
2016-08-26T01:26:00Z,0000380,00000600,-000.74,0000.86,-000.17,0000.38,0000.53,-000.24,-000.02,-000.03,-000.02,28.2,04.7,0676.7,34.9
2016-08-26T01:27:00Z,0000380,00000600,0000.33,0000.53,0000.29,0000.57,0000.39,0000.22,0000.16,0000.06,0000.05,28.2,04.6,0676.6,34.9
2016-08-26T01:28:00Z,0000380,00000600,0000.00,0000.15,0000.31,0000.53,0000.53,0000.03,-000.08,-000.04,-000.02,28.2,04.7,0676.7,34.9
2016-08-26T01:29:00Z,0000380,00000600,-000.05,0000.79,0000.05,0000.41,0000.06,-000.22,-000.09,0000.16,-000.20,28.2,04.7,0676.7,34.9
2016-08-26T01:30:00Z,0000380,00000600,-000.67,0000.70,0000.06,0000.22,-000.14,0000.24,0000.06,0000.06,0000.36,28.2,04.6,0676.6,34.9
2016-08-26T01:31:00Z,0000380,00000600,0001.39,0000.78,0000.23,0000.53,0000.33,0000.24,0000.15,-000.00,-000.05,28.2,04.7,0676.6,34.9
2016-08-26T01:32:00Z,0000380,00000600,-000.35,0000.50,0000.46,0000.57,-000.22,-000.13,0000.13,-000.19,-000.32,28.2,04.6,0676.6,34.9
2016-08-26T01:33:00Z,0000380,00000600,0000.35,0000.78,0000.53,-000.13,0000.22,0000.24,0000.03,0000.10,0000.42,28.2,04.6,0676.6,34.9
2016-08-26T01:34:00Z,0000380,00000600,-000.37,0000.26,0000.23,0000.16,0000.08,0000.16,0000.01,-000.01,-000.42,28.2,04.7,0676.6,34.9
2016-08-26T01:35:00Z,0000380,00000600,0000.85,0000.43,0000.97,0000.68,-000.06,0000.22,0000.06,0000.03,0000.26,28.2,04.7,0676.6,34.9
2016-08-26T01:36:00Z,0000380,00000600,-000.05,0000.24,-000.02,0000.28,0000.00,-000.24,-000.03,-000.07,-000.06,28.2,04.7,0676.6,34.9
2016-08-26T01:37:00Z,0000380,00000600,0000.40,0000.61,0000.07,0000.66,-000.19,0000.02,0000.03,0000.14,-000.13,28.1,04.7,0676.6,34.9
2016-08-26T01:38:00Z,0000380,00000600,0000.44,0000.38,0000.00,0000.60,0000.25,0000.00,0000.07,-000.02,0000.30,28.1,04.6,0676.6,34.9
2016-08-26T01:39:00Z,0000380,00000600,-000.81,0000.77,0000.58,0000.85,0000.08,0000.08,-000.04,-000.13,-000.22,28.0,04.7,0676.5,34.9
2016-08-26T01:40:00Z,0000380,00000600,0000.98,0000.31,0000.25,0000.63,-000.06,-000.11,0000.17,0000.13,-000.05,28.0,04.7,0676.5,34.9
2016-08-26T01:41:00Z,0000380,00000600,0000.81,0000.75,0000.15,0001.11,0000.33,-000.05,-000.19,0000.08,0000.03,28.0,04.7,0676.5,34.9
2016-08-26T01:42:00Z,0000380,00000600,0001.53,0000.82,0000.53,0000.08,0000.06,-000.11,-000.05,-000.10,0000.04,27.9,04.7,0676.5,34.9
2016-08-26T01:43:00Z,0000380,00000600,0000.02,0000.25,0000.05,0000.19,0000.48,-000.11,0000.09,0000.21,0000.18,27.9,04.7,0676.5,34.9
2016-08-26T01:44:00Z,0000380,00000600,-000.06,0000.76,0000.86,0000.41,0000.25,0000.11,0000.22,0000.01,-000.11,27.8,04.7,0676.5,34.9
2016-08-26T01:45:00Z,0000380,00000600,0000.62,-000.27,0000.66,0000.44,-000.19,0000.19,0000.17,0000.11,0000.14,27.8,04.7,0676.5,34.8
2016-08-26T01:46:00Z,0000380,00000600,0001.04,0000.56,0000.51,0000.39,-000.25,-000.06,-000.10,0000.03,0000.07,27.8,04.7,0676.5,34.8
2016-08-26T01:47:00Z,0000380,00000600,-000.45,0000.24,0000.74,0000.61,0000.19,-000.11,-000.10,0000.15,0000.09,27.8,04.8,0676.5,34.8
2016-08-26T01:48:00Z,0000380,00000600,-000.25,0000.74,0000.28,-000.88,0000.30,-000.35,0000.24,0000.09,0000.10,27.8,04.8,0676.5,34.8
2016-08-26T01:49:00Z,0000380,00000600,0000.52,0000.71,0000.69,0000.00,0000.23,0000.14,0000.05,-000.07,0000.05,27.8,04.8,0676.5,34.8
2016-08-26T01:50:00Z,0000380,00000600,0000.84,0000.33,0000.53,0000.82,-000.11,0000.11,0000.11,0000.11,-000.07,27.8,04.8,0676.5,34.8
2016-08-26T01:51:00Z,0000380,00000600,-000.98,0000.76,0000.27,0000.20,0000.11,0000.25,0000.11,-000.10,0000.13,27.8,04.8,0676.4,34.8
2016-08-26T01:52:00Z,0000380,00000600,-000.43,0000.47,0000.36,0000.24,0000.08,0000.00,-000.13,0000.08,-000.14,27.9,04.8,0676.4,34.8
2016-08-26T01:53:00Z,0000380,00000600,0000.55,0001.12,0000.59,-000.14,-000.34,0000.33,0000.01,0000.09,0000.31,27.8,04.8,0676.4,34.8
2016-08-26T01:54:00Z,0000380,00000600,-000.24,0000.55,0000.19,0000.86,0000.22,0000.09,-000.07,0000.00,-000.17,27.8,04.8,0676.5,34.8
2016-08-26T01:55:00Z,0000380,00000600,0001.17,0000.59,0000.43,0000.55,-000.16,0000.16,0000.11,0000.04,0000.12,27.8,04.8,0676.5,34.8
2016-08-26T01:56:00Z,0000380,00000600,0000.66,0000.55,-000.20,0000.24,0000.27,-000.24,0000.04,-000.13,-000.19,27.8,04.8,0676.5,34.8
2016-08-26T01:57:00Z,0000380,40000600,,,,,,,,,,,,0676.7,34.8
2016-08-26T01:58:00Z,0000380,60000600,,,,,,,,,,27.8,04.7,0675.4,34.8
2016-08-26T01:59:00Z,0000380,20000600,,,,,,,,,,27.8,04.8,0675.4,34.8
2016-08-26T02:00:00Z,0000380,20000600,,,,,,,,,,27.8,04.8,0675.4,34.8
2016-08-26T02:01:00Z,0000380,20000600,,,,,,,,,,27.7,04.7,0675.4,34.8
2016-08-26T02:02:00Z,0000380,20000600,,,,,,,,,,27.7,04.6,0675.4,34.8
2016-08-26T02:03:00Z,0000380,60000600,,,,,,,,,,27.7,04.6,0675.4,34.8
2016-08-26T02:04:00Z,0000380,40000600,-000.12,0000.72,0000.83,0001.10,0000.34,-000.13,0000.15,0000.04,0000.29,27.8,04.8,0676.4,34.8
2016-08-26T02:05:00Z,0000380,00000600,0000.88,0000.60,0001.26,0000.56,-000.12,0000.05,-000.10,-000.05,-000.04,27.7,04.7,0676.5,34.8
2016-08-26T02:06:00Z,0000380,00000600,0001.08,0000.55,0000.38,0001.05,0000.37,0000.31,0000.04,0000.14,0000.04,27.7,04.7,0676.5,34.8
2016-08-26T02:07:00Z,0000380,00000600,0001.51,0000.86,0000.63,0000.85,0000.42,0000.03,0000.11,0000.21,0000.06,27.7,04.7,0676.5,34.8
2016-08-26T02:08:00Z,0000380,00000600,0001.03,0000.94,0000.60,-000.09,0000.09,0000.11,0000.12,0000.05,0000.08,27.7,04.7,0676.5,34.8
2016-08-26T02:09:00Z,0000380,00000600,0000.41,0000.23,0001.05,0000.36,-000.48,0000.28,0000.17,0000.07,-000.02,27.6,04.7,0676.5,34.8
2016-08-26T02:10:00Z,0000380,00000600,0000.48,0001.03,0000.35,-000.50,-000.16,0000.39,-000.25,-000.10,0000.15,27.6,04.7,0676.5,34.8
2016-08-26T02:11:00Z,0000380,00000600,0001.10,0000.59,0000.31,-000.17,0000.27,0000.11,0000.30,0000.04,0000.05,27.6,04.6,0676.4,34.8
2016-08-26T02:12:00Z,0000380,00000600,0001.21,0000.11,0000.60,0000.88,0000.14,0000.06,-000.11,0000.11,0000.18,27.6,04.6,0676.4,34.8
2016-08-26T02:13:00Z,0000380,00000600,0001.86,0000.12,0000.25,0000.14,0000.45,0000.09,-000.00,-000.04,-000.20,27.6,04.6,0676.4,34.8
2016-08-26T02:14:00Z,0000380,00000600,0000.46,0000.55,0000.54,-000.06,0000.19,0000.42,0000.13,0000.24,0000.03,27.6,04.7,0676.5,34.8
2016-08-26T02:15:00Z,0000380,00000600,0000.93,0000.99,0000.90,0000.16,-000.02,0000.09,0000.25,-000.08,0000.26,27.6,04.6,0676.5,34.8
2016-08-26T02:16:00Z,0000380,00000600,0001.25,0001.06,0000.50,0000.03,0000.00,-000.13,-000.16,0000.08,-000.16,27.6,04.7,0676.5,34.8
2016-08-26T02:17:00Z,0000380,00000600,0001.26,0000.57,0000.65,0000.44,0000.19,0000.17,0000.13,0000.08,0000.04,27.6,04.7,0676.5,34.8
2016-08-26T02:18:00Z,0000380,00000600,0001.16,0001.07,0000.48,0000.60,0000.30,0000.13,0000.05,-000.03,0000.01,27.6,04.7,0676.5,34.8
2016-08-26T02:19:00Z,0000380,00000600,0000.26,0000.72,0001.02,0000.14,0000.05,0000.25,0000.12,-000.00,0000.22,27.5,04.7,0676.5,34.8
2016-08-26T02:20:00Z,0000380,00000600,0000.24,0001.15,0000.57,0000.41,0000.34,0000.19,0000.10,0000.05,-000.04,27.5,04.7,0676.5,34.8
2016-08-26T02:21:00Z,0000380,00000600,0001.25,0001.13,0000.58,0000.50,0000.05,-000.02,0000.00,0000.20,0000.10,27.5,04.7,0676.5,34.8
2016-08-26T02:22:00Z,0000380,00000600,0001.27,0000.41,0000.76,0000.38,0000.61,0000.58,-000.02,-000.09,0000.00,27.5,04.6,0676.5,34.8
2016-08-26T02:23:00Z,0000380,00000600,0001.36,0000.68,0000.98,0000.78,0000.50,0000.19,0000.08,0000.07,-000.02,27.5,04.7,0676.5,34.8
2016-08-26T02:24:00Z,0000380,00000600,0000.00,0001.32,0000.28,-000.03,0000.19,0000.02,0000.16,-000.01,-000.01,27.5,04.7,0676.4,34.8
2016-08-26T02:25:00Z,0000380,00000600,0001.17,0001.61,0000.41,0000.75,0000.19,0000.08,-000.05,0000.04,0000.06,27.5,04.7,0676.5,34.8
2016-08-26T02:26:00Z,0000380,00000600,0000.84,0000.80,0000.76,-000.06,0000.45,0000.46,-000.08,0000.07,-000.13,27.5,04.7,0676.5,34.8
2016-08-26T02:27:00Z,0000380,00000600,0000.73,0001.18,0001.12,0000.55,0000.12,0000.44,0000.17,0000.02,-000.03,27.5,04.6,0676.5,34.8
2016-08-26T02:28:00Z,0000380,00000600,0001.06,0000.40,0000.78,0000.67,0000.00,0000.58,0000.03,-000.11,-000.08,27.5,04.6,0676.5,34.8
2016-08-26T02:29:00Z,0000380,00000600,0001.74,0001.19,0000.55,-000.17,0001.01,0000.09,-000.02,0000.09,0000.13,27.5,04.7,0676.5,34.8
2016-08-26T02:30:00Z,0000380,00000600,0000.88,0000.55,0000.67,0000.82,0000.33,-000.22,-000.00,0000.19,0000.08,27.5,04.7,0676.5,34.8
2016-08-26T02:31:00Z,0000380,00000600,0000.63,0000.53,0000.45,0000.00,-000.02,-000.35,-000.06,-000.17,-000.05,27.5,04.6,0676.5,34.8
2016-08-26T02:32:00Z,0000380,00000600,0001.60,0000.89,0000.32,0000.33,0000.22,-000.16,0000.09,0000.08,0000.10,27.5,04.7,0676.5,34.8
2016-08-26T02:33:00Z,0000380,00000600,0001.29,0000.59,0000.87,0000.36,-000.09,0000.39,0000.10,0000.04,-000.00,27.5,04.7,0676.5,34.8
2016-08-26T02:34:00Z,0000380,00000600,0000.24,0000.94,0000.76,0000.24,0000.30,0000.13,-000.02,0000.03,-000.16,27.5,04.7,0676.5,34.8
2016-08-26T02:35:00Z,0000380,00000600,0001.45,0000.97,0000.66,0000.20,0000.23,-000.52,0000.19,-000.01,0000.29,27.5,04.7,0676.5,34.8
2016-08-26T02:36:00Z,0000380,00000600,0001.04,0000.73,0000.67,-000.13,0000.06,0000.16,0000.06,0000.11,0000.17,27.5,04.7,0676.5,34.8
2016-08-26T02:37:00Z,0000380,00000600,0001.71,0001.25,0000.82,0000.05,0000.05,0000.11,-000.06,0000.22,0000.11,27.5,04.7,0676.5,34.8
2016-08-26T02:38:00Z,0000380,00000600,0000.91,0001.32,0000.52,0000.36,0000.16,0000.52,0000.23,-000.01,-000.16,27.5,04.7,0676.5,34.8
2016-08-26T02:39:00Z,0000380,00000600,0001.41,0000.18,0000.72,0000.80,0000.42,0000.20,-000.06,0000.00,0000.18,27.5,04.7,0676.5,34.8
2016-08-26T02:40:00Z,0000380,00000600,0001.03,0001.02,0000.30,0000.36,0000.36,0000.06,0000.09,0000.09,-000.07,27.5,04.7,0676.5,34.8
2016-08-26T02:41:00Z,0000380,00000600,0001.03,0000.58,0000.75,0000.78,0000.27,-000.16,0000.18,-000.02,-000.20,27.5,04.7,0676.5,34.8
2016-08-26T02:42:00Z,0000380,00000600,0001.39,0000.53,0000.30,0000.75,0000.52,0000.36,-000.30,0000.10,0000.08,27.5,04.7,0676.5,34.8
2016-08-26T02:43:00Z,0000380,00000600,0001.18,0000.68,0000.33,0000.05,0000.69,0000.16,0000.19,-000.05,0000.13,27.5,04.8,0676.5,34.8
2016-08-26T02:44:00Z,0000380,00000600,0000.63,0001.38,0000.76,0000.08,0000.08,0000.33,0000.04,0000.00,-000.03,27.5,04.7,0676.5,34.8
2016-08-26T02:45:00Z,0000380,00000600,0001.53,0001.27,0000.71,-000.39,0000.31,0000.05,-000.04,0000.17,0000.26,27.5,04.7,0676.5,34.8
2016-08-26T02:46:00Z,0000380,00000600,0000.50,0000.88,0000.63,0000.45,0000.28,0000.16,0000.15,-000.09,-000.09,27.5,04.7,0676.5,34.8
2016-08-26T02:47:00Z,0000380,00000600,-000.21,0001.12,0000.70,0000.19,0000.00,-000.20,-000.07,-000.03,-000.03,27.5,04.7,0676.5,34.8
2016-08-26T02:48:00Z,0000380,00000600,0001.88,0000.45,0000.40,0000.08,0000.11,-000.11,-000.08,0000.05,0000.01,27.5,04.8,0676.5,34.8
2016-08-26T02:49:00Z,0000380,00000600,0001.37,0000.81,0000.58,0000.82,-000.12,0000.46,0000.18,-000.08,0000.03,27.5,04.8,0676.6,34.8
2016-08-26T02:50:00Z,0000380,00000600,0001.86,0000.46,0000.56,0000.39,0000.12,-000.08,-000.02,0000.09,-000.10,27.5,04.7,0676.6,34.8
2016-08-26T02:51:00Z,0000380,00000600,0001.34,0001.13,0000.58,0000.49,0000.05,0000.39,0000.12,0000.09,0000.13,27.5,04.7,0676.6,34.8
2016-08-26T02:52:00Z,0000380,00000600,0000.79,0001.16,0000.57,0000.72,0000.20,0000.08,0000.15,-000.02,-000.10,27.5,04.7,0676.5,34.8
2016-08-26T02:53:00Z,0000380,00000600,0001.11,0001.51,0000.74,0000.41,0000.34,0000.22,-000.19,0000.03,0000.33,27.5,04.7,0676.5,34.8
2016-08-26T02:54:00Z,0000380,00000600,0001.39,0001.22,0000.63,0000.58,0000.55,0000.35,0000.15,0000.09,-000.24,27.5,04.7,0676.5,34.8
2016-08-26T02:55:00Z,0000380,00000600,0000.36,0000.34,0001.07,0000.34,0000.17,0000.25,0000.14,0000.10,-000.04,27.4,04.8,0676.5,34.8
2016-08-26T02:56:00Z,0000380,00000600,0001.16,0000.80,0001.09,0000.36,0000.17,0000.25,-000.09,0000.01,0000.28,27.4,04.7,0676.5,34.8
2016-08-26T02:57:00Z,0000380,40000600,,,,,,,,,,,,0676.6,34.8
2016-08-26T02:58:00Z,0000380,60000600,,,,,,,,,,27.3,04.6,0675.5,34.8
2016-08-26T02:59:00Z,0000380,20000600,,,,,,,,,,27.3,04.6,0675.5,34.8
2016-08-26T03:00:00Z,0000380,20000600,,,,,,,,,,27.3,04.6,0675.5,34.8
2016-08-26T03:01:00Z,0000380,20000600,,,,,,,,,,27.3,04.6,0675.5,34.8
2016-08-26T03:02:00Z,0000380,20000600,,,,,,,,,,27.3,04.6,0675.5,34.8
2016-08-26T03:03:00Z,0000380,60000600,,,,,,,,,,27.3,04.6,0675.5,34.8
2016-08-26T03:04:00Z,0000380,40000600,0001.63,0001.09,0000.10,-000.11,0000.50,-000.31,0000.08,0000.09,-000.15,27.3,04.7,0676.4,34.8
2016-08-26T03:05:00Z,0000380,00000600,0000.81,0000.72,0000.60,-000.30,0000.17,0000.55,0000.07,-000.01,0000.35,27.3,04.8,0676.4,34.8
2016-08-26T03:06:00Z,0000380,00000600,0002.05,0000.94,0000.30,-000.14,-000.11,0000.13,-000.08,-000.07,-000.13,27.3,04.8,0676.5,34.8
2016-08-26T03:07:00Z,0000380,00000600,0001.93,0000.98,0000.55,-000.09,0000.22,0000.55,0000.10,0000.27,-000.21,27.3,04.7,0676.4,34.8
2016-08-26T03:08:00Z,0000380,00000600,0001.52,0000.59,0000.45,0000.38,0000.28,0000.83,0000.04,-000.00,0000.22,27.3,04.7,0676.5,34.8
2016-08-26T03:09:00Z,0000380,00000600,0001.82,0000.90,-000.03,0000.41,0000.17,0000.47,0000.19,0000.08,-000.04,27.3,04.7,0676.5,34.8
2016-08-26T03:10:00Z,0000380,00000600,0001.89,0001.00,0000.50,0000.14,0000.06,0000.13,0000.04,0000.05,0000.11,27.3,04.8,0676.5,34.8
2016-08-26T03:11:00Z,0000380,00000600,0001.66,0001.26,0000.32,0000.19,-000.22,0000.50,-000.08,0000.14,0000.15,27.3,04.8,0676.5,34.8
2016-08-26T03:12:00Z,0000380,00000600,0001.84,0001.02,0000.60,0000.08,0000.06,0000.19,0000.19,-000.07,0000.01,27.3,04.7,0676.5,34.8